Location: Dehesa de la Cepeda
(40.6574°N, 4.3013°W)
Time: 02:45:18
(UTC+00:00)

Courier 1B - Pass Details

Date: 01 August 2021
Orbit: 963 x 1209 km, 28.3° (Epoch: 17 September)

Event Time Altitude Azimuth Distance (km) Brightness Sun altitude
Rises 20:30:05 0° 246° (WSW) 4,104 11.2 -10.4°
Reaches altitude 10° 20:33:17 10° 237° (WSW) 3,132 10.4 -10.9°
Maximum altitude 20:40:00 32° 178° (S) 1,898 8.7 -11.9°
Enters shadow 20:44:54 16° 126° (SE) 2,600 9.0 -12.6°
Drops below altitude 10° 20:46:29 10° 118° (ESE) 3,030 - -12.9°
Sets 20:49:32 0° 109° (ESE) 3,953 - -13.3°
